�N����,����,�~����,�C��,���x,�C��,����,���ϕ���,�ő�u�ԕ���,�ő厞����,���˗�,�I�_���x,�n�����x,�ő啗���N��,DTYPE
"22/05/29","00:10",0.0,16.7,83.0,1002.4,298.5,1.0,1.3,312.3,0.00,13.8,20.0,"00:04:40",1
"22/05/29","00:20",0.0,16.8,83.8,1002.4,299.3,1.2,2.0,304.9,0.00,14.1,20.1,"00:19:28",1
"22/05/29","00:30",0.0,16.8,84.2,1002.2,301.4,1.2,1.7,312.5,0.00,14.2,20.0,"00:20:24",1
"22/05/29","00:40",0.0,16.7,84.5,1002.4,298.8,1.2,2.0,324.6,0.00,14.1,19.9,"00:38:24",1
"22/05/29","00:50",0.0,16.6,84.7,1002.2,286.9,1.2,2.2,307.4,0.00,14.1,19.7,"00:47:44",1
"22/05/29","01:00",0.0,16.5,84.9,1001.9,283.5,1.1,1.6,272.9,0.00,14.0,19.7,"00:59:04",1
"22/05/29","01:10",0.0,16.3,85.1,1002.6,306.2,1.2,1.9,321.7,0.00,13.8,19.6,"01:00:32",1
"22/05/29","01:20",0.0,16.4,85.5,1002.4,325.8,1.7,2.1,325.8,0.00,14.0,19.7,"01:15:20",1
"22/05/29","01:30",0.0,16.3,86.1,1002.2,310.3,1.5,2.0,324.7,0.00,14.0,19.6,"01:26:48",1
"22/05/29","01:40",0.0,16.1,86.4,1001.9,287.8,1.3,1.9,319.4,0.00,13.9,19.6,"01:39:52",1
"22/05/29","01:50",0.0,16.0,86.7,1002.6,301.4,1.5,1.9,319.0,0.00,13.8,19.5,"01:45:44",1
"22/05/29","02:00",0.0,16.1,86.8,1002.6,307.7,1.7,2.2,331.8,0.00,13.9,19.5,"01:51:28",1
"22/05/29","02:10",0.0,16.1,86.8,1002.9,308.5,1.6,2.4,312.8,0.00,13.9,19.5,"02:00:32",1
"22/05/29","02:20",0.0,15.9,86.8,1002.4,301.9,1.0,2.1,319.8,0.00,13.7,19.3,"02:12:48",1
"22/05/29","02:30",0.0,15.7,87.0,1002.6,309.7,1.2,2.0,316.1,0.00,13.6,19.6,"02:26:56",1
"22/05/29","02:40",0.0,15.5,87.3,1002.4,308.8,1.1,1.8,319.2,0.00,13.4,19.3,"02:30:24",1
"22/05/29","02:50",0.0,15.3,87.7,1002.6,307.1,1.3,1.8,320.9,0.00,13.3,19.6,"02:47:12",1
"22/05/29","03:00",0.0,15.4,88.2,1002.9,309.7,1.6,1.9,314.0,0.00,13.5,19.2,"02:55:52",1
"22/05/29","03:10",0.0,15.3,88.6,1002.9,289.9,1.3,1.8,313.3,0.00,13.5,19.0,"03:03:44",1
"22/05/29","03:20",0.0,15.4,88.9,1002.9,289.2,1.3,1.7,305.6,0.00,13.6,19.3,"03:19:04",1
"22/05/29","03:30",0.0,15.5,89.0,1003.1,302.1,1.7,2.5,320.9,0.00,13.7,19.1,"03:26:24",1
"22/05/29","03:40",0.0,15.4,89.1,1003.4,311.1,1.7,2.2,321.3,0.00,13.7,19.2,"03:31:28",1
"22/05/29","03:50",0.0,15.3,89.2,1003.1,291.7,1.5,2.5,304.6,0.00,13.6,19.1,"03:48:48",1
"22/05/29","04:00",0.0,15.3,89.3,1003.1,293.3,1.5,1.8,316.9,0.00,13.6,19.1,"03:55:20",1
"22/05/29","04:10",0.0,15.3,89.4,1003.1,319.5,1.8,2.4,321.9,0.00,13.6,19.2,"04:05:36",1
"22/05/29","04:20",0.0,15.1,89.6,1003.1,326.1,1.7,2.0,328.4,0.00,13.4,18.9,"04:10:32",1
"22/05/29","04:30",0.0,14.9,89.8,1003.1,313.3,1.6,2.1,328.6,0.00,13.3,18.8,"04:20:48",1
"22/05/29","04:40",0.0,15.0,90.3,1003.6,322.5,1.3,1.7,322.4,0.00,13.5,19.0,"04:33:52",1
"22/05/29","04:50",0.0,14.8,90.4,1003.4,309.5,1.6,2.0,320.4,0.00,13.3,18.8,"04:45:28",1
"22/05/29","05:00",0.0,14.6,90.7,1003.4,299.2,1.0,1.7,320.2,0.00,13.1,18.8,"04:50:08",1
"22/05/29","05:10",0.0,14.4,90.9,1003.6,303.6,1.5,2.0,318.8,0.00,13.0,18.7,"05:08:12",1
"22/05/29","05:20",0.0,14.3,91.0,1003.4,289.2,1.0,1.4,305.0,0.00,12.9,18.6,"05:11:04",1
"22/05/29","05:30",0.0,14.4,91.5,1003.4,277.2,1.1,1.2,266.6,0.00,13.1,18.8,"05:24:56",1
"22/05/29","05:40",0.0,14.5,91.6,1003.8,295.9,1.2,1.7,297.5,0.00,13.2,18.6,"05:30:48",1
"22/05/29","05:50",0.0,14.8,91.8,1003.6,324.9,1.5,2.2,329.6,0.00,13.5,18.7,"05:48:08",1
"22/05/29","06:00",0.0,14.8,91.9,1003.4,303.4,1.2,1.6,321.0,0.00,13.5,18.6,"05:56:16",1
"22/05/29","06:10",0.0,14.9,92.0,1003.4,293.5,1.1,1.8,308.2,0.00,13.7,18.7,"06:06:00",1
"22/05/29","06:20",0.0,15.3,92.2,1003.6,309.9,1.0,1.6,323.3,0.02,14.1,18.6,"06:16:40",1
"22/05/29","06:30",0.0,16.1,92.3,1003.6,339.8,0.8,1.7,346.4,0.03,14.9,18.6,"06:25:12",1
"22/05/29","06:40",0.0,16.7,92.2,1003.4,336.3,1.2,1.7,342.6,0.05,15.5,18.6,"06:35:36",1
"22/05/29","06:50",0.0,17.3,92.1,1003.8,333.4,1.0,1.4,332.8,0.07,16.0,18.4,"06:40:16",1
"22/05/29","07:00",0.0,18.0,91.5,1004.3,345.9,0.8,1.8,340.0,0.09,16.6,18.5,"06:58:48",1
"22/05/29","07:10",0.0,19.0,90.8,1004.5,337.7,0.7,1.3,334.9,0.11,17.5,18.2,"07:02:40",1
"22/05/29","07:20",0.0,19.9,89.6,1004.3,28.0,0.3,0.5,25.8,0.14,18.2,18.6,"07:11:52",1
"22/05/29","07:30",0.0,20.5,87.0,1004.3,2.0,0.6,1.3,350.3,0.16,18.3,18.4,"07:27:12",1
"22/05/29","07:40",0.0,21.2,82.9,1004.5,355.5,0.5,1.3,342.0,0.18,18.2,18.4,"07:35:04",1
"22/05/29","07:50",0.0,22.0,78.0,1004.1,359.8,0.2,1.0,308.6,0.21,18.0,18.3,"07:48:40",1
"22/05/29","08:00",0.0,22.8,73.1,1003.8,52.9,0.3,1.1,85.6,0.23,17.8,18.4,"07:54:48",1
"22/05/29","08:10",0.0,23.4,69.5,1003.8,111.5,0.3,1.3,120.7,0.26,17.5,18.4,"08:08:16",1
"22/05/29","08:20",0.0,23.7,65.9,1003.8,97.6,0.6,1.3,109.5,0.28,17.0,18.4,"08:11:36",1
"22/05/29","08:30",0.0,24.5,64.3,1003.1,75.9,0.5,1.3,97.2,0.31,17.4,18.3,"08:24:00",1
"22/05/29","08:40",0.0,24.7,62.1,1002.9,18.0,0.6,1.6,18.6,0.33,17.0,18.3,"08:33:28",1
"22/05/29","08:50",0.0,24.7,62.0,1002.9,24.2,0.8,2.1,6.7,0.35,17.0,18.5,"08:46:00",1
"22/05/29","09:00",0.0,25.5,62.3,1002.4,26.2,0.5,1.8,25.0,0.38,17.8,18.5,"08:52:00",1
"22/05/29","09:10",0.0,25.6,63.6,1002.2,145.9,1.0,2.4,135.3,0.40,18.2,18.3,"09:02:48",1
"22/05/29","09:20",0.0,25.3,62.6,1001.9,185.6,1.2,3.1,192.2,0.42,17.7,18.5,"09:17:36",1
"22/05/29","09:30",0.0,25.5,62.0,1002.2,177.4,0.8,1.9,209.1,0.44,17.7,18.4,"09:25:20",1
"22/05/29","09:40",0.0,25.6,58.8,1002.2,193.3,1.1,2.1,165.2,0.46,17.0,18.7,"09:31:04",1
"22/05/29","09:50",0.0,26.2,57.2,1002.4,238.3,0.8,2.9,224.6,0.48,17.1,18.6,"09:49:28",1
"22/05/29","10:00",0.0,26.2,57.9,1002.4,180.6,1.1,2.6,184.2,0.49,17.3,18.7,"09:59:44",1
"22/05/29","10:10",0.0,27.3,56.5,1002.6,152.8,0.6,1.8,335.9,0.51,17.9,18.7,"10:09:52",1
"22/05/29","10:20",0.0,26.9,56.4,1002.6,209.4,1.5,2.5,185.6,0.52,17.5,18.8,"10:13:04",1
"22/05/29","10:30",0.0,27.0,53.0,1002.4,185.0,1.3,2.9,235.9,0.54,16.7,18.5,"10:27:44",1
"22/05/29","10:40",0.0,27.0,55.1,1002.2,194.9,1.8,3.7,236.7,0.55,17.3,18.8,"10:32:56",1
"22/05/29","10:50",0.0,27.5,50.2,1001.9,195.0,1.2,2.6,204.4,0.56,16.3,18.9,"10:40:24",1
"22/05/29","11:00",0.0,27.8,47.2,1002.2,191.8,1.5,2.7,223.5,0.57,15.6,19.1,"10:50:16",1
"22/05/29","11:10",0.0,28.9,46.4,1002.2,142.7,1.0,3.5,178.6,0.59,16.3,19.0,"11:09:52",1
"22/05/29","11:20",0.0,28.6,45.6,1002.2,186.3,1.5,3.9,216.5,0.59,15.8,18.9,"11:18:48",1
"22/05/29","11:30",0.0,29.2,47.1,1001.9,193.5,1.2,3.2,192.0,0.60,16.8,19.1,"11:26:08",1
"22/05/29","11:40",0.0,29.3,43.6,1001.7,229.8,1.3,3.9,226.3,0.60,15.7,19.1,"11:30:16",1
"22/05/29","11:50",0.0,29.1,44.7,1001.9,154.7,1.8,4.5,167.2,0.61,15.9,19.4,"11:47:52",1
"22/05/29","12:00",0.0,29.8,43.0,1001.5,164.3,1.3,2.7,229.1,0.62,15.9,19.4,"11:51:52",1
"22/05/29","12:10",0.0,30.4,45.1,1001.5,144.7,1.2,2.8,158.3,0.62,17.2,19.4,"12:04:48",1
"22/05/29","12:20",0.0,30.1,40.8,1001.7,145.6,1.6,4.3,206.1,0.62,15.4,19.6,"12:19:44",1
"22/05/29","12:30",0.0,29.9,40.3,1001.5,173.9,2.1,4.2,156.0,0.62,15.0,19.6,"12:27:04",1
"22/05/29","12:40",0.0,30.2,39.7,1001.5,169.9,2.0,3.5,151.2,0.62,15.0,19.4,"12:39:04",1
"22/05/29","12:50",0.0,31.0,42.1,1001.0,133.6,1.3,3.3,159.6,0.62,16.7,19.7,"12:41:20",1
"22/05/29","13:00",0.0,30.8,37.3,1001.2,179.7,1.7,3.6,211.2,0.61,14.6,19.6,"12:58:56",1
"22/05/29","13:10",0.0,30.7,39.2,1001.0,196.0,2.1,4.1,230.5,0.61,15.3,19.9,"13:02:00",1
"22/05/29","13:20",0.0,31.5,39.6,1001.0,120.2,1.3,3.9,97.7,0.60,16.2,19.9,"13:15:52",1
"22/05/29","13:30",0.0,31.7,36.4,1000.8,144.1,1.1,3.2,129.3,0.60,15.0,20.0,"13:20:48",1
"22/05/29","13:40",0.0,32.4,36.5,1001.0,108.4,0.8,2.7,352.2,0.59,15.7,19.8,"13:31:12",1
"22/05/29","13:50",0.0,32.2,38.1,1001.2,174.4,1.3,2.8,231.2,0.58,16.2,20.1,"13:42:48",1
"22/05/29","14:00",0.0,32.2,37.0,1001.0,137.8,1.3,2.9,146.5,0.57,15.7,20.1,"13:59:36",1
"22/05/29","14:10",0.0,32.1,37.2,1000.8,217.7,1.3,3.4,144.7,0.56,15.7,20.1,"14:01:20",1
"22/05/29","14:20",0.0,31.6,34.3,1000.8,179.7,2.0,4.8,141.4,0.54,14.0,20.2,"14:14:24",1
"22/05/29","14:30",0.0,32.3,35.4,1000.8,209.6,1.3,4.0,225.1,0.53,15.1,20.1,"14:29:28",1
"22/05/29","14:40",0.0,32.7,35.9,1000.8,194.1,1.2,2.8,211.7,0.52,15.7,20.2,"14:30:32",1
"22/05/29","14:50",0.0,32.7,34.1,1000.5,166.0,1.3,2.9,160.5,0.50,14.9,20.3,"14:47:20",1
"22/05/29","15:00",0.0,32.7,33.0,1000.5,158.7,1.2,3.9,126.1,0.49,14.4,20.6,"14:59:52",1
"22/05/29","15:10",0.0,32.4,38.1,1000.0,162.8,1.8,3.4,182.3,0.47,16.3,20.6,"15:00:48",1
"22/05/29","15:20",0.0,33.3,32.2,1000.0,219.8,0.8,2.9,190.2,0.45,14.5,20.7,"15:10:32",1
"22/05/29","15:30",0.0,32.9,32.8,999.8,201.1,1.6,3.9,216.3,0.43,14.5,20.7,"15:25:44",1
"22/05/29","15:40",0.0,32.9,29.7,999.8,219.1,1.2,2.6,237.4,0.41,12.9,20.6,"15:31:36",1
"22/05/29","15:50",0.0,32.6,30.3,999.6,215.0,1.7,4.1,171.0,0.39,13.0,20.8,"15:41:28",1
"22/05/29","16:00",0.0,32.8,31.9,999.8,160.2,1.1,2.7,177.2,0.37,13.9,20.7,"15:58:00",1
"22/05/29","16:10",0.0,32.5,30.6,999.6,199.1,1.5,2.9,204.5,0.34,13.0,20.9,"16:06:56",1
"22/05/29","16:20",0.0,32.9,29.5,999.8,188.1,1.0,2.5,146.2,0.32,12.8,20.9,"16:13:36",1
"22/05/29","16:30",0.0,32.8,28.5,999.6,179.5,1.0,2.5,231.8,0.30,12.2,20.9,"16:20:32",1
"22/05/29","16:40",0.0,32.7,31.3,999.8,184.2,1.1,3.1,176.7,0.27,13.6,21.0,"16:36:00",1
"22/05/29","16:50",0.0,33.1,27.5,999.8,171.1,0.5,1.4,131.9,0.25,11.9,21.0,"16:47:36",1
"22/05/29","17:00",0.0,32.9,27.5,999.8,79.2,1.2,2.9,25.2,0.22,11.8,21.0,"16:55:36",1
"22/05/29","17:10",0.0,32.4,31.2,999.8,187.9,1.1,2.6,209.4,0.20,13.3,21.1,"17:04:24",1
"22/05/29","17:20",0.0,32.5,31.7,999.8,148.0,0.6,1.6,203.5,0.14,13.6,21.2,"17:10:02",1
"22/05/29","17:30",0.0,32.3,31.5,999.6,198.9,1.2,2.0,230.1,0.04,13.3,21.1,"17:25:12",1
"22/05/29","17:40",0.0,31.9,30.4,999.3,186.8,1.2,2.1,231.8,0.03,12.4,21.2,"17:34:08",1
"22/05/29","17:50",0.0,31.6,29.7,999.6,193.5,1.7,3.2,155.1,0.02,11.8,21.4,"17:43:20",1
"22/05/29","18:00",0.0,31.8,30.7,999.1,218.1,1.1,2.1,234.6,0.02,12.5,21.5,"17:56:00",1
"22/05/29","18:10",0.0,31.3,30.7,999.1,204.3,1.6,2.8,217.7,0.02,12.1,21.1,"18:06:24",1
"22/05/29","18:20",0.0,31.0,30.9,999.1,226.7,1.2,2.5,197.0,0.01,11.9,21.2,"18:10:08",1
"22/05/29","18:30",0.0,30.2,36.5,998.6,316.2,0.8,1.9,347.4,0.01,13.7,21.3,"18:29:20",1
"22/05/29","18:40",0.0,28.9,40.5,998.4,326.0,1.5,2.1,321.4,0.00,14.2,21.5,"18:31:44",1
"22/05/29","18:50",0.0,27.8,44.8,997.9,329.5,1.5,2.5,337.5,0.00,14.8,21.4,"18:42:32",1
"22/05/29","19:00",0.0,27.0,47.4,997.4,321.2,1.0,1.8,337.0,0.00,14.9,21.4,"18:58:32",1
"22/05/29","19:10",0.0,26.4,49.8,997.9,340.0,1.2,2.2,349.6,0.00,15.1,21.3,"19:09:36",1
"22/05/29","19:20",0.0,25.9,48.7,998.4,336.1,2.0,3.1,350.0,0.00,14.3,21.4,"19:18:00",1
"22/05/29","19:30",0.0,25.8,48.1,998.6,347.0,1.7,2.6,345.9,0.00,14.0,21.3,"19:20:48",1
"22/05/29","19:40",0.0,25.6,47.6,998.9,341.3,1.6,3.2,354.6,0.00,13.7,21.2,"19:32:56",1
"22/05/29","19:50",0.0,25.2,46.9,999.3,306.2,1.0,2.4,318.8,0.00,13.1,21.2,"19:40:16",1
"22/05/29","20:00",0.0,24.7,49.8,999.3,308.7,1.2,2.0,310.7,0.00,13.6,21.2,"19:54:08",1
"22/05/29","20:10",0.0,24.2,50.2,999.6,273.2,0.7,1.4,307.5,0.00,13.2,21.4,"20:01:44",1
"22/05/29","20:20",0.0,23.7,51.5,999.8,309.7,1.0,1.7,319.0,0.00,13.2,21.1,"20:13:36",1
"22/05/29","20:30",0.0,23.1,53.3,1000.0,301.9,0.7,1.4,320.3,0.00,13.1,21.1,"20:20:08",1
"22/05/29","20:40",0.0,23.1,52.7,1000.0,330.0,1.7,2.2,340.7,0.00,13.0,21.1,"20:37:28",1
"22/05/29","20:50",0.0,22.8,54.0,1000.3,300.1,1.5,2.7,333.9,0.00,13.1,21.0,"20:42:40",1
"22/05/29","21:00",0.0,22.4,56.1,1000.3,332.4,1.6,2.8,344.3,0.00,13.3,20.9,"20:55:36",1
"22/05/29","21:10",0.0,22.1,56.4,1000.3,322.4,1.2,1.9,309.6,0.00,13.1,20.9,"21:09:28",1
"22/05/29","21:20",0.0,21.8,57.7,1001.0,328.5,1.5,2.4,310.9,0.00,13.1,20.8,"21:16:32",1
"22/05/29","21:30",0.0,21.5,60.4,1000.3,314.9,1.3,2.0,319.3,0.00,13.6,21.0,"21:24:48",1
"22/05/29","21:40",0.0,21.4,61.1,1001.0,300.3,1.3,2.2,310.0,0.00,13.6,20.8,"21:36:00",1
"22/05/29","21:50",0.0,21.3,62.3,1001.2,312.5,1.6,2.5,315.5,0.00,13.8,20.7,"21:46:56",1
"22/05/29","22:00",0.0,21.1,62.3,1001.2,301.6,1.0,2.5,332.4,0.00,13.7,20.8,"21:50:16",1
"22/05/29","22:10",0.0,21.1,63.2,1001.5,316.1,1.6,2.6,308.0,0.00,13.9,20.8,"22:01:52",1
"22/05/29","22:20",0.0,20.6,63.8,1001.7,305.4,1.2,2.4,308.7,0.00,13.5,20.7,"22:13:12",1
"22/05/29","22:30",0.0,20.4,64.5,1001.5,291.9,1.1,1.9,293.2,0.00,13.5,20.6,"22:26:48",1
"22/05/29","22:40",0.0,20.3,65.1,1001.5,305.2,1.3,2.0,318.2,0.00,13.6,20.6,"22:37:28",1
"22/05/29","22:50",0.0,20.1,65.8,1001.5,312.9,1.5,1.9,309.1,0.00,13.5,20.4,"22:44:40",1
"22/05/29","23:00",0.0,19.8,66.6,1001.5,318.1,1.3,1.9,332.8,0.00,13.4,20.4,"22:50:24",1
"22/05/29","23:10",0.0,19.7,67.2,1001.5,285.9,1.2,1.7,270.7,0.00,13.5,20.3,"23:07:28",1
"22/05/29","23:20",0.0,19.5,67.5,1001.9,296.0,1.2,1.6,320.3,0.00,13.4,20.3,"23:18:08",1
"22/05/29","23:30",0.0,19.4,67.9,1001.7,289.4,1.2,1.7,304.7,0.00,13.4,20.3,"23:23:20",1
"22/05/29","23:40",0.0,19.4,67.8,1001.9,300.3,1.3,2.8,317.3,0.00,13.3,20.4,"23:33:04",1
"22/05/29","23:50",0.0,19.2,68.1,1001.7,306.2,1.6,2.5,328.0,0.00,13.2,20.3,"23:43:44",1
"22/05/29","24:00",0.0,19.1,68.7,1001.9,314.5,1.5,2.1,315.5,0.00,13.3,20.4,"23:51:44",1
